Weather Roundup
Issued by NWS Springfield, MO

Home | Current Version | Previous Version | Text Only | Print | Product List | Glossary On
Versions: 1 2 3 4 5 6 7 8 9 10 11 12 13 14 15 16 17 18 19 20 21 22 23 24 25 26 27 28 29 30 31 32 33 34 35 36 37 38 39 40 41 42 43 44 45 46 47 48 49 50
000
NZUS99 KSGF 040107
HRRSGF

HOURLY WEATHER
NATIONAL WEATHER SERVICE SPRINGFIELD MO
800 PM CDT FRI JUL 03 2015

......SGF CWA......

CITY           SKY/WX    TMP DP  RH WIND       PRES   REMARKS
SPRINGFIELD    PTCLDY    76  66  71 E6        29.91R
JOPLIN         MOCLDY    78  70  76 CALM      29.91R
WEST PLAINS    PTCLDY    75  68  78 N3        29.92R
ROLLA          CLEAR     74  64  71 N3        29.91R
OSAGE BEACH    CLEAR     72  64  78 CALM      29.91S
BRANSON        PTCLDY    75  70  83 CALM      29.92R

......SURROUNDING SGF CWA......

CITY           SKY/WX    TMP DP  RH WIND       PRES   REMARKS
CHANUTE        CLEAR     78  66  66 NE6       29.92R
PARSONS        PTCLDY    80  69  69 VRB3      29.91S
COFFEYVILLE    CLEAR     80  68  66 E8        29.89R
EMPORIA        CLEAR     76  63  64 NE9       29.94R
GROVE OK       CLEAR     81  70  69 CALM      29.90S
ROGERS AR      PTCLDY    74  70  87 S7        29.93R
SILOAM SPRINGS PTCLDY    73  64  73 E5          N/A
HARRISON AR    CLOUDY    73  72  96 CALM      29.92R
NEAR YELLVILLE CLOUDY    72  68  88 SW3       29.87F

......KANSAS AND MISSOURI......

CITY           SKY/WX    TMP DP  RH WIND       PRES   REMARKS
KANSAS CTY INT CLEAR     75  59  57 NE6       29.94S
DOWNTOWN KC    CLEAR     76  59  55 NE5       29.92S
COLUMBIA       CLEAR     75  61  61 N6        29.92S
SEDALIA        CLEAR     75  64  68 N3        29.93S
ST JOSEPH      CLEAR     77  58  51 NE6       29.94S
ST LOUIS       PTCLDY    79  64  60 N7        29.90R
SPIRIT OF STL  CLEAR     77  64  64 N3        29.89R
KIRKSVILLE     CLEAR     73  61  65 N5        29.94S
WICHITA        PTCLDY    81  63  54 NE8       29.93S
TOPEKA         CLEAR     76  59  55 NE5       29.94S
OLATHE         CLEAR     75  54  47 NE7       29.93S

......TENNESSEE......

CITY           SKY/WX    TMP DP  RH WIND       PRES   REMARKS
MEMPHIS        CLOUDY    75  70  84 SW13G25   29.88S
NASHVILLE      CLOUDY    74  68  81 SW3       29.92R

......ARKANSAS.......

CITY           SKY/WX    TMP DP  RH WIND       PRES   REMARKS
FAYETTEVILLE   CLOUDY    71  69  93 E5        29.91F
FT SMITH       CLOUDY    74  68  81 SW6       29.86F
LITTLE ROCK    CLOUDY    76  71  85 CALM      29.89R

......OKLAHOMA.......

CITY           SKY/WX    TMP DP  RH WIND       PRES   REMARKS
TULSA          PTCLDY    84  71  65 N10       29.86S
PONCA CITY     CLEAR     84  64  50 NE12      29.90R
MCALESTER      MOCLDY    73  67  81 SW13      29.90R THUNDER
OKLAHOMA CITY  CLOUDY    81  70  69 S3        29.91R

......IOWA............

CITY           SKY/WX    TMP DP  RH WIND       PRES   REMARKS
DES MOINES     PTCLDY    75  58  55 S6        29.94S
QUAD CITIES    CLEAR     73  61  65 CALM      29.92S

......ILLINOIS........

CITY           SKY/WX    TMP DP  RH WIND       PRES   REMARKS
QUINCY         CLEAR     74  63  68 N5        29.92R
CHICAGO        MOCLDY    70  49  47 E7        29.91S



USA.gov is the U.S. government's official web portal to all federal, state and local government web resources and services.